Find Beidou DW 5

NORAD ID: 36828 Int'l Des: 2010-036 Owner: CNSA Country: CN Constellation: BeiDou operational
HEOCIRCULARGSO

Live-Position

3D-Globus wird geladen...

Über Beidou DW 5

Beschreibung wird geladen...

Nächste Überflüge

Passes for default location (London). Set your location on the main map for personalized predictions.

Höhenverlauf

Loading altitude history...

Zweizeiliger Elementsatz

1 36828U 10036A 26086.63883914 -.00000150 00000-0 00000+0 0 9997
2 36828 54.2909 163.6978 0057462 222.7537 133.1758 1.00295665 57273
Epoch: 27. März 2026 • Age: 467 hours

Aktueller Status

Höhe 35605.5 km
Geschwindigkeit 3.09 km/s
Subsatellitenpunkt 0.90°N, 105.84°E
Startdatum 31. Juli 2010
Alter 15.7 years
Typ navigation

Technische Details

Klassifizierung Payload
Masse 2300.00 kg
Trockenmasse 1300.00 kg
Gesamtmasse 2300.00 kg
Länge 3.00 m
Durchmesser 1.70 m
Spannweite 18.00 m
Form Box + 2 Pan
Hersteller CAST
Bus-Typ DFH-3
Phasenstatus In Orbit
Besitzer/Staat CNSA/CN

Most Searched